Retour au catalogue

STARLINK-37670

ActifCommunicationsVLEO
NORAD 69530·PAYLOAD·🇺🇸 United States

Lancé Jun 12, 2026 depuis Cape Canaveral Space Force Station

Loading…

Prochains Passages (prochaines 24 heures)

TLE

FraisSource: CelesTrak SupGP

Époque: Sep 14, 2026, 14:54 UTC

1 69530C 26133Y   26257.62131944 -.00022896  00000+0 -67666-3 0  2579
2 69530  53.1566 256.8791 0001294  87.3737 353.6360 15.34393419    19

Suivez STARLINK-37670 en temps réel avec AllMySat

Download on the App Store